Wind_Speed
109 110 110 111 112 114 116 117 119 120 122 124 125 125 126 126 125 125 123 122 120 119 117 115 114 112 110 109 108 106 105 104 103 102 102 102 102 101 101 101 101 101 101 101 101 102 102 102 103 103 104 104 104 104 104 104 104 104 103 102 102 101 101 100 100 100 100 100 101 101 102 102 103 103 104 104 105 106 107 107 108 109 109 110 110 111
111 112 113 114 115 117 119 121 122 123 124 125 126 126 126 125 124 122 120 118 116 114 113 111 109 108 106 105 103 102 101 100 99 99 99 99 98 98 97 97 97 97 97 97 98 98 98 99 99 100 100 100 101 101 101 101 101 100 100 99 99 98 98 97 97 97 97 97 97 98 98 98 99 99 100 101 101 102 102 103 104 104 105 105 106 106
113 114 116 117 118 120 122 123 124 125 126 126 126 125 124 122 120 118 116 114 112 110 109 107 105 104 102 101 100 98 97 97 97 96 96 95 95 94 93 93 93 93 94 94 94 95 95 95 96 96 96 97 97 97 97 98 97 97 97 97 96 96 95 95 95 94 94 94 94 95 95 95 96 96 96 97 97 98 98 99 99 100 100 101 101 102
115 117 118 119 121 122 124 125 126 126 126 125 124 122 120 118 116 114 112 110 108 106 105 103 102 100 99 98 97 95 95 94 94 94 93 92 91 90 90 90 90 91 91 91 91 91 91 92 92 92 93 93 94 94 94 94 94 94 94 93 93 93 92 92 92 92 92 92 92 92 92 92 92 93 93 94 94 94 95 95 96 96 96 97 97 98
118 119 121 122 124 125 125 126 126 125 124 122 120 118 116 114 112 109 108 106 104 103 102 100 99 98 96 95 94 92 92 92 91 91 90 89 88 87 87 87 87 87 87 87 87 87 88 88 88 89 89 89 90 90 90 90 90 90 90 90 90 90 90 89 89 89 89 89 89 89 89 89 89 90 90 90 91 91 92 92 92 93 93 93 94 94
121 122 123 124 125 126 126 126 124 123 121 119 116 113 111 109 107 106 104 102 101 100 98 97 96 95 94 92 91 90 89 89 89 88 87 85 84 84 84 85 84 84 84 84 84 84 84 84 85 85 85 85 86 86 86 86 86 86 87 87 86 86 86 86 86 86 86 86 86 86 86 86 87 87 87 88 88 88 88 89 89 89 90 90 91 91
123 124 125 125 126 126 125 124 122 119 117 115 112 109 107 105 104 102 101 99 98 97 96 95 94 92 91 89 88 87 87 87 86 85 83 82 82 82 82 82 81 81 80 80 80 80 81 81 81 81 81 81 82 82 82 82 83 83 83 83 83 83 83 83 83 83 83 83 83 83 83 84 84 84 84 84 85 85 85 86 86 87 87 87 88 88
126 126 126 126 126 125 123 121 118 115 112 110 108 106 104 102 101 99 98 97 95 94 93 92 91 90 88 87 85 85 85 84 83 82 80 79 79 79 79 79 78 78 77 77 77 77 77 77 77 78 78 78 78 78 78 79 79 79 79 79 79 80 80 80 80 80 80 80 80 80 81 81 81 81 81 82 82 82 83 83 83 84 84 85 85 86
127 127 127 126 124 122 120 117 114 111 108 106 104 103 101 99 98 96 95 94 93 92 91 90 88 87 85 84 83 83 82 82 80 79 77 77 77 77 77 76 76 75 75 74 74 74 74 74 74 74 74 74 75 75 75 75 75 76 76 76 76 76 77 77 77 77 77 77 77 78 78 78 78 78 78 79 79 79 80 80 80 81 81 82 82 83
127 127 125 123 121 118 116 113 110 108 105 103 101 100 98 96 95 93 92 91 91 90 89 87 85 84 83 82 81 81 80 79 78 76 75 75 74 74 74 74 73 72 72 72 71 71 71 71 71 71 71 71 71 72 72 72 72 72 73 73 73 73 73 74 74 74 74 74 75 75 75 75 75 76 76 76 76 77 77 77 78 78 79 79 80 80
126 124 122 120 117 114 111 109 107 104 102 100 99 97 95 94 92 90 89 88 88 87 86 85 83 81 80 79 79 79 78 77 76 74 73 72 72 72 72 71 71 70 69 69 69 68 68 68 68 68 68 68 69 69 69 69 69 69 70 70 70 70 70 71 71 71 72 72 72 72 73 73 73 73 73 74 74 74 75 75 75 76 76 77 77 78
124 121 118 116 113 110 108 105 103 101 99 98 96 95 93 91 89 87 86 85 85 84 84 82 81 79 78 78 77 77 76 75 74 72 71 70 70 70 69 69 68 67 67 66 66 66 66 66 66 66 66 66 66 66 66 66 67 67 67 67 67 68 68 68 68 69 69 69 70 70 70 70 71 71 71 71 72 72 72 73 73 74 74 75 75 76
119 117 114 111 109 107 104 102 100 99 97 95 94 92 90 89 86 85 83 83 82 82 81 80 79 78 77 76 75 75 74 73 72 71 69 68 68 67 67 67 66 65 64 64 63 63 63 63 63 63 64 64 64 64 64 64 64 64 64 64 65 65 65 66 66 66 67 67 67 68 68 68 68 69 69 69 70 70 70 71 71 71 72 72 73 74
115 112 110 107 105 103 101 99 98 96 94 93 91 89 88 86 84 82 81 81 80 79 79 78 77 76 75 74 73 73 72 71 70 69 67 66 65 65 65 65 64 63 62 61 61 61 61 61 61 61 61 61 61 61 62 62 62 62 62 62 62 63 63 64 64 64 65 65 65 65 66 66 66 67 67 67 68 68 68 69 69 70 70 71 71 72
111 108 106 104 102 100 98 97 95 93 92 90 89 87 85 83 82 80 79 79 78 77 77 76 75 74 73 72 71 71 70 69 68 67 65 64 63 63 63 62 62 61 60 59 59 59 58 58 58 58 59 59 59 59 59 59 59 60 60 60 60 61 61 62 62 62 62 63 63 63 64 64 64 65 65 65 66 66 66 67 67 68 68 69 69 70
107 105 103 101 99 98 96 94 93 91 89 88 86 84 83 81 80 78 78 77 76 76 75 74 74 73 72 71 69 68 67 67 66 65 64 62 61 61 60 60 60 59 58 57 57 56 56 56 56 56 56 56 57 57 57 57 57 57 58 58 58 59 59 60 60 60 61 61 61 61 62 62 62 63 63 64 64 64 65 65 66 66 67 67 68 68
104 102 100 99 97 96 94 92 90 89 87 85 84 82 81 79 78 77 76 75 75 74 73 72 72 71 70 69 68 67 65 64 64 63 61 60 59 58 58 58 58 58 57 55 55 54 54 54 54 54 54 54 54 54 54 54 54 55 55 56 56 57 57 58 58 58 59 59 59 60 60 60 61 61 61 62 62 63 63 63 64 65 65 66 66 67
102 100 98 97 95 94 92 90 88 87 85 83 82 81 79 78 77 76 75 74 73 72 71 70 70 69 68 67 67 65 64 63 62 61 59 58 57 56 56 56 56 55 54 54 53 52 52 52 52 52 52 52 52 52 52 52 52 52 53 53 54 54 55 56 56 56 57 57 57 58 58 58 59 59 59 60 60 61 61 62 63 63 64 64 65 65
100 98 96 95 93 91 90 88 86 85 83 82 81 79 78 77 75 74 73 72 71 70 69 68 67 66 66 65 64 64 62 61 60 59 57 56 54 53 53 53 53 53 52 51 50 50 50 50 50 50 51 50 50 50 50 49 49 50 50 51 51 52 53 53 54 54 55 55 55 56 56 56 57 57 58 58 59 59 60 60 61 62 62 63 63 64
98 96 94 92 91 89 87 86 84 83 82 80 79 78 77 76 74 73 72 70 69 68 67 65 65 64 63 62 62 61 60 59 58 57 56 54 52 51 50 50 50 50 49 48 48 47 48 48 48 49 49 48 48 48 48 47 47 47 48 48 49 49 50 51 51 52 52 52 53 53 54 54 55 55 56 56 57 57 58 59 59 60 60 61 62 62
96 94 92 90 88 87 85 84 83 81 80 79 78 77 75 74 73 71 70 68 67 65 64 63 62 61 60 60 59 59 58 57 56 55 54 52 50 48 48 47 47 47 46 46 45 45 45 46 46 46 46 46 46 46 45 45 45 45 45 46 46 47 48 48 49 49 49 50 50 51 52 52 53 53 54 55 55 56 56 57 57 58 59 59 60 61
93 91 90 88 86 84 83 82 81 80 79 77 76 75 74 72 71 69 68 66 65 63 62 61 60 58 57 57 56 56 56 55 54 53 52 50 48 47 45 45 45 44 44 43 42 42 43 43 44 44 44 44 44 43 43 43 43 43 43 44 44 45 45 46 46 47 47 48 48 49 50 50 51 52 52 53 53 54 54 55 55 56 57 58 58 59
91 89 87 85 84 83 81 80 79 78 77 76 74 73 71 70 68 67 65 64 62 61 60 59 57 56 55 54 53 53 53 53 52 51 50 49 47 45 44 43 42 42 41 40 40 40 41 41 42 42 42 41 41 41 41 41 41 41 41 42 42 43 43 44 44 44 45 45 46 47 47 48 49 50 50 51 51 52 53 53 54 54 55 56 57 57
88 86 85 83 82 81 80 79 78 76 75 74 72 71 69 67 66 64 63 61 60 59 58 57 55 54 53 51 50 50 50 50 50 49 48 47 45 44 42 41 41 40 39 38 38 38 39 39 40 40 39 39 39 39 39 38 38 39 39 40 40 41 41 42 42 43 43 44 44 45 45 46 47 48 48 49 50 50 51 51 52 53 54 54 55 56
86 84 83 81 80 79 78 77 76 74 73 71 70 68 67 65 63 62 60 59 58 57 56 55 53 52 50 49 48 47 47 47 47 47 46 45 44 42 41 40 40 39 38 37 36 36 37 38 38 38 37 37 37 36 36 36 37 37 37 38 39 39 40 40 40 41 41 42 42 43 44 44 45 46 46 47 48 49 49 50 51 51 52 53 53 54
84 82 81 80 79 77 76 75 73 72 70 69 67 66 64 62 61 59 58 57 56 55 54 53 52 50 48 46 45 44 44 45 45 45 44 43 42 41 40 39 38 37 36 35 35 35 35 36 36 36 35 35 35 34 35 35 35 35 36 36 37 37 38 38 39 39 40 40 41 42 42 43 43 44 45 45 46 47 48 48 49 50 50 51 51 52
82 80 79 78 77 76 74 72 71 69 67 66 65 63 61 60 58 57 56 55 54 53 52 51 50 49 47 45 43 42 41 42 43 43 42 41 40 39 38 38 37 37 36 34 33 33 34 35 35 35 34 33 33 33 33 33 33 34 34 35 35 36 36 37 37 38 38 39 40 40 41 41 42 42 43 44 45 45 46 47 47 48 48 49 50 50
80 78 77 76 74 73 72 70 68 66 65 63 62 60 59 57 56 55 54 53 52 51 50 49 48 47 46 44 41 40 39 40 41 41 40 39 38 37 37 36 36 36 35 34 32 32 32 33 34 34 33 32 32 31 31 31 32 32 33 33 34 34 35 35 36 36 37 38 38 39 39 40 40 41 42 42 43 44 44 45 45 46 46 47 48 48
78 76 75 73 72 70 69 67 65 64 62 60 59 57 56 54 53 52 51 51 50 49 48 48 47 46 45 43 41 39 38 38 38 39 38 38 37 36 35 35 35 35 34 33 32 31 31 31 32 33 32 32 31 30 30 30 30 31 31 32 32 33 33 34 34 35 36 36 37 37 38 39 39 40 40 41 41 42 42 43 43 44 45 45 46 46
76 74 73 71 69 68 66 64 63 61 59 58 56 55 53 52 50 49 49 48 48 47 47 46 45 44 43 42 40 38 37 37 37 37 37 36 35 34 34 33 33 33 33 33 32 31 29 29 30 31 31 31 30 29 29 29 29 30 30 31 31 31 32 32 33 33 34 35 35 36 37 37 38 38 39 39 40 40 41 41 42 42 43 44 44 45
74 72 70 68 66 65 63 62 60 58 57 55 54 52 51 49 48 47 47 46 46 45 45 45 44 43 42 40 39 38 37 36 36 36 35 34 34 33 32 32 32 32 32 32 32 31 29 28 28 28 29 29 29 28 28 28 28 28 29 29 30 30 31 31 32 32 33 33 34 35 35 36 36 37 37 38 38 39 39 40 40 41 42 42 43 43
71 69 67 66 64 62 60 59 57 56 54 53 51 50 48 47 46 45 44 44 44 43 43 43 43 42 40 39 38 37 36 35 35 35 34 33 33 32 31 31 31 31 30 30 30 30 29 28 27 27 27 27 27 27 26 27 27 27 28 28 29 29 30 30 30 31 31 32 33 33 33 34 34 35 35 36 36 37 37 38 39 40 40 41 41 42
69 67 65 63 61 60 58 56 55 54 52 51 49 48 46 45 44 43 42 42 42 42 42 41 41 41 40 38 37 35 34 34 34 34 34 33 32 32 31 31 30 30 29 29 29 29 28 27 26 26 26 26 26 26 25 26 26 26 27 27 28 28 29 29 29 30 30 30 31 31 32 32 32 33 33 34 35 35 36 37 37 38 39 39 40 40
66 64 62 61 59 57 56 54 53 51 50 48 47 46 44 43 42 41 41 40 40 40 40 40 39 39 38 37 36 34 33 33 33 33 33 33 32 32 31 30 30 30 29 28 27 26 26 25 25 25 25 25 25 25 25 25 25 25 26 26 27 27 27 28 28 28 29 29 29 29 30 30 30 31 32 33 33 34 35 35 36 37 37 38 38 38
63 62 60 58 57 55 54 52 51 49 48 46 45 44 42 41 40 40 39 39 39 38 38 38 38 38 37 36 35 34 33 33 33 32 32 32 31 31 31 30 30 29 29 28 27 25 24 24 23 23 24 24 24 24 24 24 24 24 25 25 25 26 26 26 27 27 27 27 27 28 28 28 29 29 30 31 31 32 33 34 34 35 35 36 36 37
61 59 57 56 55 53 52 50 49 47 46 44 43 42 40 39 39 38 38 37 37 37 37 36 36 36 36 35 34 34 33 33 32 32 31 31 31 31 30 30 30 29 29 28 26 25 24 23 22 23 23 23 24 23 23 23 24 24 24 24 25 25 25 25 25 25 26 26 26 26 26 27 27 28 28 29 30 30 31 31 32 33 33 34 34 35
58 57 55 54 52 51 50 48 47 45 44 43 41 40 39 38 37 37 36 36 36 35 35 35 35 35 34 34 33 33 32 32 32 31 31 30 30 30 30 30 29 29 29 28 26 24 23 22 22 22 22 23 23 23 23 23 23 24 24 24 24 24 24 24 24 24 24 24 24 25 25 25 26 26 27 27 28 29 29 29 30 30 31 32 32 33
55 54 53 52 50 49 48 47 45 44 43 41 40 39 38 37 36 35 35 35 34 34 34 33 33 33 33 32 32 31 31 31 31 30 30 30 29 29 29 29 29 28 28 27 26 24 22 22 22 22 22 22 22 22 23 23 23 23 24 23 23 23 23 23 23 23 23 23 23 23 24 24 24 25 25 26 26 27 27 27 28 28 29 29 29 30
53 52 50 49 48 47 46 45 44 43 42 40 39 38 37 36 35 34 33 33 33 33 32 32 32 32 31 31 31 30 30 30 30 29 29 29 28 28 28 28 28 27 27 26 24 23 22 21 21 21 21 21 21 22 22 23 23 23 23 23 23 22 22 22 22 22 22 22 22 22 22 23 23 24 24 24 25 25 25 25 26 26 26 27 27 27
51 49 48 47 46 46 45 44 43 42 41 40 39 37 36 35 34 33 32 32 31 31 31 31 31 30 30 30 29 29 29 28 28 28 28 28 27 27 27 27 27 26 25 24 23 22 21 21 21 20 20 21 21 21 22 22 22 22 22 22 22 22 21 21 21 21 21 21 21 21 21 22 22 22 23 23 23 23 23 24 24 24 24 25 25 25
48 47 46 45 45 44 43 42 42 41 40 39 38 37 36 34 33 32 31 30 30 30 30 30 29 29 28 28 28 28 28 27 27 27 27 26 26 26 25 25 25 25 24 23 22 21 20 20 20 20 20 20 20 21 21 21 21 21 21 21 21 20 20 20 20 19 20 20 20 20 20 21 21 21 21 21 22 22 22 22 22 22 23 23 23 23
46 45 44 43 43 42 41 41 40 40 39 38 37 36 35 34 33 31 30 29 29 28 28 28 28 27 26 26 26 26 26 26 26 26 25 25 25 24 24 24 24 23 22 22 21 20 19 19 19 19 19 19 19 19 20 20 20 20 20 20 19 19 18 18 18 18 18 18 19 19 19 20 20 20 20 20 20 20 20 20 20 20 21 21 21 21
44 43 42 41 41 40 40 39 39 38 38 37 36 35 35 33 32 31 30 29 28 27 27 27 26 26 25 24 24 24 25 25 25 24 24 24 23 23 22 22 22 21 21 20 19 19 18 18 18 18 18 18 18 18 19 19 19 19 18 18 17 17 17 17 17 17 17 17 18 18 18 19 19 19 19 19 19 19 19 19 18 18 18 19 19 19
43 42 41 40 39 38 38 37 37 36 36 35 35 34 34 33 32 30 29 28 27 27 26 26 25 24 24 23 23 23 23 23 23 23 23 22 22 22 21 21 20 20 19 19 18 18 17 17 17 17 17 17 17 18 18 18 17 17 16 16 15 15 15 15 15 16 16 16 17 17 18 18 18 18 17 17 17 17 17 16 16 16 16 16 17 17
42 41 40 39 38 37 36 35 35 34 34 34 33 33 32 32 31 30 29 28 27 27 26 26 25 24 23 22 21 22 22 22 22 22 22 21 21 20 20 19 19 19 18 18 17 17 17 16 16 16 16 17 17 17 16 16 16 15 14 14 14 13 14 14 14 15 15 16 16 16 17 17 16 16 16 16 15 15 15 14 14 14 14 14 14 15
42 40 39 38 37 36 35 34 33 33 32 32 32 31 31 31 30 29 28 27 27 26 26 25 25 23 22 21 21 20 21 21 21 21 20 20 20 19 19 18 18 17 17 16 16 16 16 15 15 15 15 16 16 15 15 15 14 13 13 12 12 12 12 13 13 14 14 15 15 15 16 16 15 15 15 14 14 13 13 12 12 12 12 12 12 13
41 40 39 38 37 35 34 33 32 31 31 30 30 30 30 30 29 28 27 27 26 26 25 25 24 23 22 21 20 20 20 20 20 20 19 19 19 18 17 17 16 16 16 15 15 15 14 14 14 14 14 14 14 14 14 13 12 12 11 11 11 11 11 12 12 13 13 14 14 14 14 14 14 14 13 12 12 11 11 11 11 11 11 10 10 11
40 39 38 37 36 35 34 33 32 31 30 29 28 28 28 28 28 28 27 26 26 25 25 24 24 23 22 21 20 20 20 19 19 19 18 18 18 17 16 16 15 15 14 14 14 14 13 13 13 13 13 13 13 13 12 12 11 10 10 10 9 10 10 11 12 12 12 13 13 13 13 13 13 12 12 11 10 10 10 10 10 9 9 9 9 9
39 38 37 36 35 34 33 32 31 30 29 28 28 27 27 27 27 27 26 26 25 25 24 24 23 22 21 20 19 19 19 19 19 18 18 17 17 16 16 15 14 14 14 13 13 13 12 12 12 12 12 12 12 11 11 10 10 9 9 8 9 9 9 10 10 11 11 11 12 12 12 12 11 11 10 10 10 10 9 9 9 8 8 8 7 7
38 37 36 35 34 34 33 32 31 30 29 28 28 27 27 27 26 26 26 25 25 25 24 24 23 22 21 20 19 19 18 18 18 17 17 17 16 15 15 14 13 13 13 13 13 12 12 11 11 11 11 11 10 10 9 9 8 8 8 7 8 8 9 9 10 10 10 10 10 10 11 11 10 10 9 9 9 9 9 8 8 7 7 6 6 6
36 36 35 34 34 33 32 32 31 30 29 29 28 27 26 26 26 25 25 25 25 24 24 23 23 21 20 19 18 18 18 18 17 17 16 16 15 15 14 13 13 12 12 12 12 12 11 10 10 10 10 10 9 8 8 7 7 7 6 6 7 7 8 8 9 9 9 9 9 9 10 10 10 9 9 9 9 9 8 8 7 7 6 5 5 4
Wind_Direction
299 299 300 300 300 300 300 300 300 300 300 299 299 298 298 297 296 295 295 294 294 293 292 292 291 290 290 289 288 288 287 287 286 285 284 284 283 282 282 281 281 280 280 279 279 278 278 277 277 276 276 276 275 275 275 274 274 274 273 273 272 271 271 270 269 268 268 267 266 265 265 264 263 263 262 262 261 261 260 260 259 259 259 258 258 257
300 300 301 301 301 301 301 301 301 301 300 300 299 298 298 297 296 296 295 295 294 293 293 292 291 291 290 290 289 289 288 287 287 286 285 284 283 283 282 282 282 281 280 279 279 278 278 277 277 276 276 276 275 275 275 274 274 274 273 273 272 271 271 270 269 268 267 267 266 265 265 264 263 263 262 262 261 261 260 260 260 259 259 258 258 257
301 302 302 302 302 302 302 302 302 301 300 300 299 298 298 297 297 296 296 295 294 294 293 292 292 291 291 290 290 289 289 288 287 286 285 284 284 284 283 283 282 281 280 279 279 278 278 277 277 276 276 275 275 275 274 274 274 273 273 273 272 271 271 270 269 268 267 267 266 265 264 264 263 263 262 262 261 261 260 260 259 259 259 258 258 257
302 303 303 303 303 303 303 302 302 301 300 300 299 299 298 298 297 296 296 295 295 294 293 293 293 292 292 291 290 290 289 288 287 286 286 285 285 285 284 283 282 281 280 279 279 278 278 277 277 276 276 275 275 275 274 274 274 273 273 272 272 271 271 270 269 268 267 267 266 265 264 264 263 262 262 261 261 260 260 260 259 259 258 258 257 257
304 304 304 304 304 303 303 302 302 301 301 300 299 299 298 298 297 297 296 296 295 295 294 294 293 293 292 292 291 291 290 289 288 287 287 286 286 285 284 283 282 281 280 280 279 279 278 277 277 276 276 275 275 274 274 274 273 273 272 272 271 271 270 270 269 268 267 267 266 265 264 264 263 262 262 261 261 260 260 259 259 258 258 257 257 256
305 305 305 305 304 304 303 303 302 301 301 300 300 299 299 298 298 297 297 296 296 295 295 294 294 293 293 292 292 291 290 289 288 288 287 287 286 285 284 283 282 282 281 280 280 279 278 277 277 276 276 275 275 274 274 273 273 272 272 272 271 270 270 269 269 268 267 267 266 265 264 264 263 262 262 261 261 260 260 259 259 258 257 257 256 256
306 305 305 305 304 304 303 303 302 302 301 301 300 300 299 298 298 298 297 297 296 296 295 295 294 294 293 293 293 292 291 290 289 289 288 288 287 286 285 284 283 283 282 281 280 279 279 278 277 277 276 275 275 274 274 273 273 272 272 271 271 270 270 269 268 268 267 266 266 265 264 264 263 262 262 261 260 260 259 259 258 258 257 257 256 255
306 306 306 305 305 304 304 303 302 302 301 301 301 300 299 299 299 298 298 298 297 297 296 295 295 294 294 294 293 292 291 290 290 290 289 288 287 286 286 285 284 283 283 282 281 280 279 279 278 277 277 276 275 275 274 273 273 272 272 271 270 270 269 269 268 267 267 266 265 265 264 263 263 262 261 261 260 260 259 258 258 257 257 256 255 255
307 306 306 305 305 304 304 303 303 302 302 301 301 300 300 300 299 299 299 298 298 297 297 296 295 295 295 294 294 293 292 291 291 290 290 289 288 287 286 286 285 284 283 283 282 281 280 279 279 278 277 277 276 275 274 274 273 272 272 271 270 270 269 268 268 267 267 266 265 265 264 263 263 262 261 261 260 259 259 258 258 257 256 256 255 255
307 306 306 306 305 304 304 304 303 303 302 302 301 301 300 300 300 300 300 299 298 298 297 296 296 296 295 295 294 293 292 292 291 291 290 290 289 288 287 286 286 285 284 283 283 282 281 280 279 279 278 277 276 276 275 274 273 273 272 271 271 270 269 268 268 267 266 266 265 264 264 263 262 262 261 261 260 259 259 258 257 257 256 256 255 254
307 307 306 306 305 305 304 304 303 303 302 302 302 301 301 300 300 300 300 299 299 298 297 297 297 296 296 295 295 294 293 292 292 291 291 290 289 289 288 287 286 286 285 284 284 283 282 281 280 279 278 278 277 276 275 274 274 273 272 271 271 270 269 269 268 267 266 266 265 264 264 263 262 262 261 260 260 259 259 258 257 257 256 255 255 254
307 307 306 306 305 305 304 304 303 303 303 302 302 302 301 301 301 301 300 300 299 298 298 298 297 297 296 296 295 294 294 293 293 292 291 291 290 289 288 288 287 286 286 285 284 283 283 282 281 280 279 278 277 276 275 274 274 273 272 272 271 270 269 268 268 267 266 266 265 264 264 263 262 262 261 260 260 259 259 258 257 257 256 255 255 254
307 307 306 306 305 305 305 304 304 303 303 303 302 302 302 302 302 301 301 300 299 299 298 298 298 297 297 296 296 295 295 294 293 293 292 292 291 290 289 288 288 287 286 285 285 284 283 282 281 280 279 278 277 276 276 275 274 273 272 271 271 270 269 268 268 267 266 265 265 264 263 263 262 262 261 260 260 259 258 258 257 257 256 255 255 254
307 307 306 306 306 305 305 305 304 304 304 303 303 303 302 302 302 302 301 300 300 299 299 299 298 298 297 297 296 296 295 294 294 293 293 292 292 291 290 289 288 287 287 286 285 284 283 282 281 280 279 278 278 277 276 275 274 273 272 271 271 270 269 268 267 267 266 265 264 264 263 263 262 261 261 260 260 259 258 258 257 257 256 255 255 254
308 307 307 306 306 306 305 305 304 304 304 304 303 303 303 303 302 302 301 301 300 300 299 299 299 298 298 297 296 296 295 295 294 294 293 293 292 292 291 290 289 288 287 286 285 284 283 282 281 280 279 278 277 277 276 275 274 273 273 272 271 270 269 268 267 266 266 265 264 264 263 262 262 261 261 260 259 259 258 258 257 256 256 255 255 254
308 307 307 307 306 306 305 305 305 305 304 304 304 303 303 303 303 302 302 301 301 300 300 300 299 299 298 297 297 296 296 295 295 294 294 293 293 292 291 291 290 289 288 287 286 285 284 282 281 280 279 278 277 276 276 275 274 273 273 272 271 270 269 268 267 266 266 265 264 264 263 262 262 261 261 260 259 259 258 258 257 256 256 255 255 254
308 308 307 307 307 306 306 306 305 305 305 305 304 304 304 304 303 303 302 302 301 301 301 300 300 299 298 298 297 296 296 295 295 295 294 294 293 293 292 291 290 289 289 288 287 285 284 283 282 280 279 278 277 276 275 275 274 273 272 272 271 270 269 268 268 267 266 265 264 264 263 262 262 261 260 260 259 259 258 258 257 256 256 255 254 254
309 308 308 308 307 307 306 306 306 306 305 305 305 304 304 304 303 303 302 302 302 301 301 300 300 299 299 298 297 297 296 296 295 295 295 294 294 293 292 291 291 290 289 288 287 286 285 284 282 281 280 279 277 276 275 274 274 273 272 271 271 270 269 269 268 267 266 266 265 264 263 262 262 261 260 260 259 258 258 257 256 256 255 255 254 254
309 309 308 308 308 307 307 307 306 306 306 305 305 305 305 304 304 303 303 302 302 302 301 300 300 299 299 298 298 297 297 297 296 295 295 295 294 293 292 291 291 290 289 289 288 287 286 285 283 282 281 280 279 277 276 275 274 273 272 271 271 270 269 269 268 267 267 266 265 264 264 263 262 261 260 259 259 258 257 257 256 255 255 254 254 253
309 309 308 308 308 308 307 307 307 306 306 306 305 305 305 304 304 303 303 302 302 301 301 300 300 299 299 298 298 298 298 297 297 296 295 295 294 293 292 291 291 290 290 289 288 287 286 285 284 283 282 281 280 279 278 277 276 274 273 272 271 270 269 269 268 267 267 266 265 264 264 263 262 261 260 259 258 258 257 256 256 255 255 254 253 253
309 309 309 308 308 308 307 307 307 306 306 306 305 305 305 304 304 303 303 302 302 301 301 300 299 299 299 299 298 298 298 297 297 296 295 295 294 293 293 292 291 290 290 289 289 288 286 285 284 283 283 282 281 281 280 279 277 276 275 273 272 271 270 269 268 267 267 266 265 264 264 263 262 261 260 259 258 258 257 256 256 255 254 254 253 253
309 309 309 308 308 308 307 307 306 306 306 306 305 305 304 304 304 303 303 302 302 301 300 300 299 299 299 299 299 298 298 297 297 296 296 295 295 294 293 292 291 291 290 290 289 288 287 285 285 284 283 282 282 281 281 280 279 278 276 275 273 272 271 270 269 267 267 266 265 264 263 263 262 261 260 260 259 258 257 256 256 255 254 254 253 253
309 309 309 308 308 308 307 307 306 306 306 305 305 305 304 304 304 303 303 302 302 301 300 300 299 299 299 299 299 299 298 298 297 297 296 296 296 295 295 293 292 292 291 291 290 289 288 286 285 284 284 283 283 282 282 281 280 279 277 276 275 273 272 271 269 268 267 266 265 264 263 262 262 261 261 260 259 259 258 257 256 256 255 254 254 253
309 309 309 308 308 308 307 307 306 306 306 305 305 304 304 304 303 303 303 302 302 301 300 300 300 299 299 299 299 299 298 298 297 297 297 297 297 296 296 295 294 293 292 291 291 290 289 287 286 285 285 284 284 283 282 281 280 279 278 276 275 274 273 271 270 269 268 266 265 264 263 262 262 261 261 260 260 259 258 258 257 256 256 255 254 254
309 309 309 308 308 307 307 306 306 306 305 305 305 304 304 304 304 303 303 302 301 301 300 300 299 299 299 299 299 299 298 298 297 297 297 297 297 297 296 295 294 293 292 292 292 291 290 288 287 287 286 285 285 284 283 282 281 279 278 277 275 274 273 272 271 269 268 267 266 265 264 263 262 262 261 260 260 259 259 258 258 257 256 256 255 255
309 309 309 308 308 307 307 306 306 306 305 305 305 304 304 304 304 303 302 302 301 301 300 300 299 299 299 299 299 298 298 297 296 296 296 297 297 296 296 295 294 294 293 293 292 292 291 289 288 288 287 287 286 285 284 283 281 280 278 277 276 274 273 272 271 270 269 268 266 265 264 263 263 262 261 260 260 259 259 258 258 258 257 257 256 256
309 309 308 308 307 307 307 306 306 306 305 305 304 304 304 304 304 303 302 302 301 301 300 300 300 299 299 299 299 298 297 296 296 296 296 296 296 296 296 296 295 294 293 293 293 293 292 291 290 290 289 288 287 286 285 283 282 280 279 277 276 274 273 272 271 270 269 268 267 266 265 264 263 262 261 261 260 260 259 259 259 258 258 257 257 257
309 309 308 308 307 307 306 306 306 305 305 305 304 304 304 304 303 303 302 302 301 301 300 300 300 300 300 300 299 299 298 297 296 296 296 296 296 296 296 295 295 294 294 293 293 293 293 293 292 291 291 290 289 288 286 285 283 281 279 277 276 275 274 272 271 270 269 268 267 266 265 264 263 263 262 261 261 260 260 259 259 259 258 258 257 257
309 308 308 307 307 307 306 306 305 305 305 304 304 304 304 304 303 303 302 302 302 301 301 301 301 301 301 301 301 300 299 297 296 296 296 297 296 296 296 295 295 295 294 294 293 293 293 293 293 293 292 291 290 289 287 285 284 282 280 278 277 275 274 273 272 271 269 269 267 267 266 265 264 263 263 262 262 261 261 260 260 259 259 258 258 257
309 308 308 307 307 306 306 306 305 305 305 304 304 304 304 304 303 303 302 302 302 302 301 301 301 301 301 302 301 301 300 299 297 297 297 297 297 296 296 295 295 295 295 295 294 293 292 292 293 293 293 292 291 289 288 286 284 282 281 279 277 276 274 273 272 271 270 269 268 267 266 266 265 265 264 264 263 262 262 261 260 260 259 258 258 257
308 308 308 307 307 306 306 305 305 305 304 304 304 304 304 304 303 303 303 302 302 302 302 301 301 301 302 302 302 302 301 300 299 298 298 298 298 298 297 297 296 296 296 296 296 295 294 293 293 293 293 292 291 290 289 287 285 283 281 279 278 276 275 274 272 271 270 269 269 268 267 267 267 266 266 265 264 264 263 262 261 260 260 259 258 258
308 308 307 307 307 306 306 305 305 305 304 304 304 304 304 304 303 303 302 302 302 302 302 302 302 301 302 302 302 302 302 301 300 300 300 300 300 299 299 299 298 298 298 298 298 298 297 296 295 295 294 293 292 291 289 287 285 283 282 280 279 277 276 274 273 272 271 270 270 269 269 268 268 268 267 266 266 265 264 263 262 262 261 260 260 259
308 308 307 307 307 306 306 305 305 305 305 305 304 304 304 304 303 303 303 302 302 302 302 301 302 301 302 302 302 302 302 302 301 301 301 301 301 301 301 301 301 300 300 300 299 299 299 298 297 296 296 294 293 291 290 287 286 284 282 280 279 278 276 275 274 273 272 271 271 270 270 270 269 269 268 267 266 266 265 264 263 263 262 261 261 260
308 308 307 307 307 306 306 305 305 305 305 305 305 305 305 304 304 303 302 302 302 301 301 301 302 302 302 302 302 302 302 302 302 302 302 303 303 303 303 303 303 303 302 302 301 300 300 299 299 298 297 296 294 292 290 288 286 284 283 281 279 278 277 276 275 274 273 273 272 271 271 270 270 269 268 267 266 266 265 264 264 263 263 262 262 261
308 308 307 307 307 306 306 306 305 305 305 305 305 305 305 304 304 303 303 302 301 301 301 301 301 302 302 303 303 303 303 302 302 302 303 304 304 305 305 305 305 305 305 304 303 302 301 301 300 299 298 297 295 293 291 289 287 285 283 281 280 279 278 277 276 275 275 274 273 272 271 271 270 269 267 267 266 265 264 264 263 263 263 262 262 261
308 308 307 307 307 306 306 306 306 306 306 306 305 305 305 305 304 303 303 302 301 301 301 301 301 302 302 303 303 304 304 303 303 303 304 305 305 306 307 307 307 307 307 306 305 304 303 303 302 301 299 297 295 294 292 289 287 285 284 282 281 280 279 279 278 277 276 276 274 273 272 271 270 269 268 267 266 265 264 264 263 263 262 262 261 261
308 308 307 307 307 306 306 306 306 306 306 306 305 305 305 305 304 303 303 302 301 301 301 301 301 301 302 303 303 304 304 304 304 304 305 305 306 307 308 308 308 308 308 307 306 306 305 304 303 301 299 297 295 294 292 290 288 286 284 283 282 281 280 280 279 279 278 277 276 275 273 272 271 269 268 268 267 266 265 265 264 263 262 262 261 260
308 308 307 307 307 307 307 307 306 306 306 306 306 305 305 304 304 303 303 302 302 301 301 301 301 302 302 302 303 303 304 304 304 305 306 306 307 307 308 308 308 308 308 307 307 307 306 305 303 301 299 297 295 294 292 290 289 287 285 284 283 282 282 281 281 280 279 278 277 276 275 273 272 271 270 269 269 268 267 267 266 265 264 263 262 261
308 308 308 308 308 307 307 307 307 307 307 306 306 306 305 305 304 304 303 303 302 302 302 301 302 302 302 303 303 303 304 304 304 305 306 306 307 307 307 308 308 307 307 307 307 307 306 305 303 301 298 296 294 293 292 290 289 287 286 285 284 284 283 283 282 281 280 279 278 277 276 275 274 273 272 272 271 270 270 269 268 267 266 265 263 262
308 308 308 308 308 308 308 308 307 307 307 307 306 306 306 305 305 304 303 303 302 302 302 302 302 302 303 303 304 304 304 304 304 305 305 306 306 307 307 307 307 306 306 306 306 306 306 305 303 300 297 295 294 292 291 289 288 287 286 285 284 284 284 283 282 281 280 280 278 278 277 276 275 274 274 273 273 272 272 271 270 269 268 266 265 263
309 309 308 308 308 308 308 308 308 308 307 307 307 307 306 306 305 305 304 304 303 303 302 302 303 303 303 304 305 305 305 305 305 305 305 306 306 306 307 306 306 305 305 305 305 306 305 304 302 299 297 295 293 291 290 289 288 286 286 285 284 284 284 283 283 282 281 280 279 278 278 277 276 276 275 275 274 274 273 272 271 270 268 267 265 263
309 309 309 309 308 308 308 308 308 308 308 307 307 307 307 307 306 306 306 305 304 304 303 303 303 304 305 305 305 305 305 305 305 305 306 306 306 306 306 306 305 305 305 305 305 306 305 303 300 298 296 293 292 290 289 288 287 286 285 284 284 284 284 284 283 283 282 281 280 279 279 278 277 277 276 276 276 275 274 273 272 270 268 267 265 263
309 309 309 309 308 308 308 308 308 308 308 308 308 308 307 307 307 307 307 306 306 305 305 304 304 305 306 307 307 307 306 306 306 306 306 306 306 306 306 306 306 305 305 305 306 306 304 301 298 296 294 292 291 290 289 288 286 286 285 284 284 284 285 285 285 285 284 284 282 281 280 279 279 278 278 278 277 276 275 274 272 270 269 266 264 262
310 309 309 309 308 308 308 308 307 307 307 307 308 308 307 308 308 308 308 308 307 307 307 306 306 307 307 308 309 309 308 307 307 307 307 307 307 307 307 306 306 306 306 306 307 306 303 300 297 295 293 292 290 289 288 288 286 285 285 286 286 287 287 288 288 288 287 286 285 283 282 281 281 280 280 279 278 277 276 275 273 272 269 267 264 261
310 310 310 309 309 308 308 308 307 307 307 307 307 307 307 307 308 308 308 309 309 309 308 308 308 308 309 310 311 310 310 309 308 308 308 308 307 308 307 307 307 307 307 307 306 305 303 300 297 295 293 292 290 289 288 288 287 286 286 287 289 290 291 292 291 291 290 289 287 286 284 283 283 282 281 281 280 279 278 277 276 273 271 268 264 260
311 311 310 310 310 309 309 308 308 307 307 307 306 306 307 307 307 308 308 309 310 309 310 310 310 310 311 312 313 313 312 311 311 310 310 309 308 308 308 308 308 308 308 308 306 304 302 299 296 294 293 291 290 288 288 288 288 288 288 291 293 295 296 296 295 294 292 291 289 288 287 286 285 284 283 283 283 283 282 282 280 277 274 270 266 261
312 311 311 311 310 310 309 309 308 308 307 307 306 306 306 306 307 307 308 309 309 310 310 310 311 311 312 314 314 315 314 313 313 312 312 310 310 309 309 309 309 309 308 308 306 303 301 298 296 294 293 291 290 289 288 289 289 290 292 295 298 300 301 300 298 296 295 293 291 290 288 288 287 286 287 287 288 289 289 288 286 282 278 274 268 262
312 311 311 311 311 310 310 309 309 308 307 307 306 305 305 305 306 306 307 308 309 310 310 311 311 312 313 315 316 316 316 315 315 315 314 312 311 310 310 310 310 310 309 308 306 304 301 299 297 295 293 292 291 291 290 290 292 294 297 301 303 304 304 303 300 299 297 295 293 292 292 291 291 291 292 294 295 297 297 295 292 288 283 277 271 264
312 312 311 311 311 311 310 309 309 308 307 307 306 305 304 304 305 305 306 307 308 308 309 310 311 312 314 316 317 317 317 316 316 316 315 314 312 312 311 311 311 311 310 308 306 303 301 300 298 297 296 294 293 292 292 293 295 298 302 306 309 309 308 306 303 301 300 298 298 296 296 296 297 298 300 302 303 304 304 301 298 292 287 280 274 265
311 311 311 311 311 310 310 309 308 308 307 306 305 304 304 303 303 304 304 305 306 307 308 309 310 311 313 316 317 318 318 317 317 317 316 314 313 312 312 312 312 312 310 307 304 302 300 300 299 298 298 297 297 296 294 295 297 302 307 312 314 314 312 310 307 305 303 303 302 302 303 303 305 306 308 309 310 310 308 306 302 297 290 282 273 264
311 311 311 310 310 310 309 308 308 307 306 305 304 303 303 302 302 302 302 303 304 305 306 307 308 310 313 315 317 318 317 317 317 317 317 315 314 313 313 313 313 313 311 307 304 301 299 299 300 300 300 300 300 299 299 298 301 306 314 320 321 320 316 313 311 310 309 309 309 309 310 311 312 314 315 317 316 314 311 309 304 300 293 283 272 259
Height
10356 10351 10347 10343 10340 10334 10327 10322 10318 10314 10309 10301 10294 10288 10283 10278 10272 10267 10261 10257 10254 10249 10244 10241 10237 10233 10230 10227 10224 10220 10217 10215 10212 10209 10205 10202 10199 10196 10194 10192 10190 10187 10184 10181 10178 10175 10173 10170 10168 10165 10164 10161 10160 10158 10157 10157 10156 10156 10157 10157 10159 10160 10161 10162 10163 10164 10165 10165 10167 10168 10169 10170 10171 10172 10174 10175 10177 10179 10181 10183 10185 10187 10190 10193 10197 10200
10346 10341 10336 10333 10330 10325 10318 10311 10305 10301 10295 10289 10282 10276 10269 10264 10259 10254 10249 10245 10241 10236 10232 10227 10224 10221 10218 10215 10212 10209 10206 10204 10200 10197 10193 10190 10187 10186 10184 10182 10179 10176 10173 10170 10167 10165 10162 10160 10158 10155 10154 10152 10150 10148 10147 10146 10145 10145 10146 10146 10147 10148 10149 10150 10150 10152 10153 10154 10155 10156 10157 10159 10160 10161 10162 10164 10166 10168 10170 10172 10174 10176 10179 10182 10185 10188
10336 10332 10326 10321 10318 10314 10307 10300 10294 10287 10281 10275 10269 10264 10257 10252 10246 10242 10237 10232 10228 10224 10219 10215 10212 10210 10207 10204 10201 10199 10195 10192 10189 10185 10181 10179 10178 10177 10175 10172 10168 10165 10162 10159 10157 10155 10153 10150 10149 10146 10144 10142 10140 10139 10137 10137 10136 10136 10136 10136 10137 10137 10137 10139 10139 10140 10141 10142 10144 10144 10145 10147 10149 10150 10152 10153 10155 10157 10159 10160 10162 10165 10167 10170 10174 10177
10327 10323 10317 10311 10306 10301 10295 10289 10282 10275 10268 10262 10257 10251 10246 10240 10234 10230 10225 10221 10217 10212 10207 10204 10201 10199 10195 10192 10190 10187 10184 10180 10177 10173 10170 10169 10169 10167 10164 10160 10157 10154 10151 10150 10148 10145 10144 10141 10139 10137 10134 10132 10131 10129 10129 10127 10127 10126 10126 10126 10127 10127 10127 10128 10129 10130 10130 10132 10133 10134 10135 10137 10138 10139 10141 10142 10144 10146 10148 10150 10152 10154 10157 10160 10162 10165
10315 10312 10307 10301 10294 10287 10281 10275 10269 10262 10256 10250 10244 10239 10234 10229 10223 10218 10214 10210 10205 10201 10197 10194 10190 10187 10184 10182 10180 10177 10174 10169 10165 10162 10161 10160 10159 10156 10152 10149 10146 10144 10142 10140 10139 10136 10134 10132 10129 10127 10125 10124 10122 10121 10120 10119 10118 10117 10117 10117 10117 10117 10117 10118 10119 10120 10120 10122 10123 10124 10125 10127 10128 10129 10131 10132 10134 10136 10138 10140 10142 10144 10147 10149 10152 10154
10303 10299 10294 10290 10284 10276 10268 10262 10256 10250 10244 10237 10232 10227 10223 10218 10212 10207 10203 10199 10194 10190 10187 10183 10180 10176 10174 10172 10169 10167 10162 10158 10155 10153 10152 10151 10149 10145 10141 10139 10136 10135 10133 10131 10129 10127 10124 10122 10120 10119 10117 10115 10114 10112 10111 10110 10109 10109 10108 10107 10107 10107 10108 10108 10109 10110 10110 10112 10113 10114 10115 10117 10118 10119 10121 10122 10124 10126 10128 10130 10132 10135 10137 10139 10142 10144
10291 10286 10281 10276 10270 10264 10256 10249 10242 10238 10233 10227 10220 10215 10211 10207 10202 10197 10192 10188 10184 10180 10177 10173 10169 10166 10164 10162 10159 10156 10152 10148 10145 10144 10143 10142 10138 10134 10131 10129 10127 10126 10124 10122 10120 10117 10115 10113 10111 10110 10108 10107 10105 10104 10102 10102 10100 10100 10099 10099 10099 10099 10099 10099 10100 10100 10101 10102 10103 10104 10105 10107 10108 10110 10111 10113 10114 10116 10118 10120 10122 10125 10127 10129 10131 10134
10280 10274 10268 10261 10256 10249 10243 10236 10229 10225 10221 10217 10210 10205 10200 10195 10191 10187 10183 10178 10174 10170 10167 10163 10159 10156 10154 10152 10149 10146 10142 10138 10136 10135 10134 10132 10128 10124 10122 10120 10119 10117 10115 10113 10110 10109 10107 10105 10103 10101 10100 10099 10097 10095 10094 10093 10092 10092 10091 10090 10090 10090 10090 10090 10091 10092 10092 10093 10094 10095 10096 10097 10099 10100 10102 10104 10105 10107 10109 10110 10112 10115 10117 10119 10121 10124
10268 10262 10256 10249 10242 10237 10231 10224 10217 10212 10209 10205 10200 10195 10190 10186 10182 10177 10174 10169 10164 10159 10156 10153 10150 10147 10145 10142 10139 10135 10132 10129 10128 10127 10125 10122 10119 10115 10113 10111 10110 10108 10106 10104 10102 10100 10099 10097 10095 10093 10092 10090 10089 10087 10086 10085 10084 10084 10083 10082 10082 10082 10082 10082 10082 10083 10084 10084 10085 10086 10087 10089 10090 10092 10093 10095 10096 10098 10100 10102 10104 10105 10107 10110 10112 10114
10256 10250 10244 10237 10230 10225 10219 10214 10207 10202 10197 10194 10189 10185 10181 10177 10173 10169 10165 10160 10154 10149 10146 10144 10141 10139 10137 10133 10130 10126 10123 10120 10119 10119 10117 10114 10110 10107 10104 10102 10101 10100 10098 10096 10094 10092 10090 10089 10087 10085 10084 10082 10081 10079 10079 10077 10077 10076 10075 10075 10074 10074 10074 10074 10074 10075 10075 10076 10077 10077 10079 10080 10081 10083 10084 10085 10087 10089 10090 10092 10094 10096 10098 10100 10102 10104
10244 10238 10232 10225 10219 10212 10208 10203 10197 10192 10188 10183 10179 10175 10171 10168 10165 10162 10157 10152 10145 10140 10137 10134 10132 10130 10128 10124 10120 10117 10114 10112 10111 10110 10108 10105 10102 10099 10097 10095 10093 10092 10090 10088 10086 10084 10083 10081 10079 10078 10076 10075 10074 10072 10070 10070 10069 10069 10068 10067 10067 10067 10067 10067 10067 10067 10067 10068 10069 10069 10070 10072 10073 10074 10075 10077 10079 10080 10082 10084 10085 10087 10089 10091 10093 10095
10233 10227 10220 10214 10208 10202 10197 10192 10187 10183 10178 10174 10170 10165 10161 10158 10155 10153 10149 10144 10138 10133 10129 10125 10124 10122 10120 10117 10112 10109 10105 10104 10102 10101 10100 10097 10095 10092 10089 10087 10085 10085 10083 10081 10079 10077 10075 10074 10072 10070 10069 10067 10066 10065 10064 10062 10062 10061 10060 10060 10060 10059 10059 10059 10059 10059 10060 10060 10061 10062 10062 10064 10065 10066 10067 10069 10070 10072 10074 10075 10077 10079 10080 10082 10084 10086
10223 10217 10210 10204 10199 10193 10187 10182 10177 10173 10169 10165 10160 10157 10153 10149 10147 10144 10140 10135 10130 10126 10122 10119 10115 10113 10111 10109 10105 10101 10098 10095 10094 10093 10092 10090 10087 10084 10082 10079 10078 10077 10076 10074 10072 10070 10069 10067 10065 10063 10062 10060 10059 10057 10057 10055 10055 10054 10054 10053 10052 10052 10052 10052 10052 10052 10052 10052 10053 10054 10055 10056 10057 10058 10059 10060 10062 10064 10065 10067 10068 10070 10072 10074 10075 10077
10214 10207 10201 10194 10189 10184 10179 10174 10169 10164 10160 10156 10152 10149 10145 10142 10139 10135 10131 10127 10122 10119 10115 10112 10109 10105 10103 10100 10097 10094 10091 10088 10086 10085 10084 10082 10080 10077 10075 10072 10070 10070 10069 10067 10065 10064 10062 10060 10059 10057 10055 10054 10052 10051 10050 10049 10048 10047 10047 10046 10045 10045 10045 10044 10044 10044 10045 10045 10046 10047 10047 10049 10049 10050 10052 10053 10054 10055 10057 10059 10060 10062 10064 10065 10067 10069
10203 10197 10191 10185 10179 10174 10169 10164 10160 10156 10152 10147 10144 10140 10137 10134 10131 10127 10124 10119 10115 10111 10108 10104 10101 10098 10096 10094 10090 10087 10084 10081 10079 10077 10077 10075 10074 10071 10068 10065 10064 10062 10062 10061 10059 10057 10055 10054 10052 10050 10049 10047 10046 10045 10044 10043 10042 10041 10040 10040 10039 10039 10038 10037 10037 10038 10038 10039 10039 10039 10040 10041 10042 10043 10044 10045 10047 10048 10049 10050 10052 10054 10055 10057 10059 10060
10192 10187 10181 10175 10170 10165 10160 10155 10152 10148 10144 10139 10135 10132 10129 10126 10123 10119 10116 10112 10108 10104 10101 10097 10094 10090 10088 10086 10084 10081 10078 10075 10072 10071 10070 10069 10067 10065 10062 10059 10057 10055 10055 10054 10053 10051 10049 10047 10046 10044 10043 10041 10040 10039 10038 10037 10036 10035 10034 10034 10032 10032 10032 10031 10031 10031 10032 10032 10032 10033 10034 10034 10035 10036 10037 10039 10039 10040 10042 10043 10044 10046 10047 10049 10050 10052
10183 10177 10172 10167 10161 10156 10151 10147 10143 10139 10135 10132 10128 10124 10122 10119 10115 10112 10108 10105 10101 10097 10094 10091 10087 10084 10080 10078 10076 10074 10072 10069 10067 10065 10064 10062 10061 10059 10056 10054 10051 10049 10049 10048 10047 10045 10043 10041 10040 10038 10037 10035 10034 10034 10032 10032 10031 10030 10029 10028 10027 10026 10025 10025 10025 10025 10025 10025 10026 10027 10027 10028 10029 10030 10030 10032 10032 10034 10035 10036 10037 10038 10040 10041 10042 10044
10173 10167 10162 10157 10152 10147 10142 10138 10134 10131 10127 10124 10120 10117 10114 10111 10108 10105 10101 10098 10094 10091 10087 10084 10081 10078 10075 10071 10068 10066 10065 10064 10061 10059 10058 10057 10055 10053 10050 10048 10045 10044 10043 10042 10040 10039 10037 10035 10034 10032 10030 10029 10029 10028 10027 10027 10025 10025 10024 10023 10022 10020 10020 10020 10020 10020 10020 10020 10020 10020 10021 10022 10022 10024 10024 10025 10026 10027 10028 10029 10030 10031 10032 10034 10035 10036
10164 10158 10153 10149 10144 10139 10135 10130 10127 10123 10120 10116 10112 10109 10106 10103 10100 10097 10094 10091 10088 10085 10082 10078 10075 10072 10069 10065 10062 10060 10058 10057 10055 10053 10052 10051 10050 10048 10045 10043 10040 10039 10038 10037 10035 10034 10032 10030 10028 10026 10025 10024 10023 10022 10022 10021 10020 10020 10019 10018 10017 10016 10015 10015 10014 10014 10014 10014 10014 10015 10015 10015 10016 10017 10018 10019 10019 10020 10021 10022 10023 10024 10025 10027 10028 10029
10155 10150 10145 10141 10137 10132 10127 10122 10119 10115 10112 10109 10105 10102 10099 10096 10093 10090 10087 10085 10082 10079 10075 10073 10069 10066 10064 10060 10057 10054 10052 10050 10049 10047 10045 10045 10044 10043 10040 10038 10035 10034 10033 10032 10030 10029 10027 10024 10022 10021 10020 10019 10018 10017 10017 10016 10015 10014 10014 10013 10012 10011 10010 10010 10009 10009 10009 10009 10009 10009 10009 10010 10010 10010 10012 10012 10013 10014 10015 10015 10017 10018 10019 10020 10021 10022
10147 10142 10137 10133 10129 10125 10120 10115 10112 10109 10105 10102 10099 10095 10092 10089 10086 10084 10081 10078 10075 10072 10070 10067 10064 10061 10059 10055 10052 10049 10047 10045 10043 10041 10040 10039 10039 10037 10036 10034 10031 10029 10028 10027 10025 10024 10022 10019 10017 10016 10015 10014 10013 10012 10012 10011 10010 10009 10009 10008 10007 10006 10005 10005 10005 10004 10004 10004 10004 10004 10004 10004 10004 10005 10005 10006 10007 10007 10009 10009 10010 10011 10012 10014 10015 10016
10139 10134 10130 10125 10122 10118 10114 10109 10105 10102 10099 10095 10093 10089 10086 10083 10080 10077 10074 10072 10069 10066 10064 10062 10059 10056 10054 10051 10048 10045 10042 10040 10038 10036 10034 10034 10032 10032 10030 10029 10026 10025 10024 10022 10021 10019 10017 10015 10013 10012 10010 10010 10009 10008 10007 10006 10005 10004 10004 10003 10002 10001 10000 10000 10000 9999 9999 9999 9999 9999 9999 9999 9999 9999 9999 10000 10000 10002 10002 10004 10004 10005 10006 10007 10008 10009
10132 10127 10123 10119 10115 10111 10107 10103 10099 10095 10092 10089 10086 10083 10080 10077 10074 10072 10069 10065 10063 10060 10058 10055 10054 10051 10049 10047 10044 10040 10037 10035 10033 10031 10030 10028 10027 10026 10025 10023 10021 10020 10019 10018 10017 10014 10012 10010 10009 10007 10007 10005 10005 10004 10003 10002 10001 10000 9999 9998 9997 9996 9995 9995 9995 9995 9994 9994 9994 9994 9994 9994 9994 9994 9994 9995 9995 9996 9997 9997 9999 9999 10000 10001 10002 10003
10124 10120 10116 10112 10108 10104 10100 10097 10093 10089 10086 10082 10079 10076 10074 10071 10069 10066 10063 10060 10057 10055 10052 10050 10048 10046 10044 10042 10040 10037 10034 10030 10028 10026 10025 10024 10022 10021 10020 10018 10016 10015 10014 10014 10012 10010 10007 10005 10004 10004 10002 10002 10000 10000 9999 9998 9997 9995 9994 9994 9992 9992 9991 9990 9990 9990 9990 9989 9989 9989 9989 9989 9989 9989 9989 9990 9990 9990 9991 9992 9993 9994 9995 9995 9996 9997
10117 10113 10109 10105 10101 10097 10094 10090 10087 10084 10080 10077 10073 10070 10067 10065 10063 10060 10057 10055 10052 10049 10047 10045 10043 10041 10040 10039 10036 10034 10030 10027 10024 10022 10021 10019 10018 10017 10015 10014 10012 10010 10009 10009 10008 10006 10004 10001 10000 9999 9999 9998 9997 9995 9995 9994 9992 9991 9990 9989 9988 9987 9987 9986 9985 9985 9985 9985 9985 9984 9985 9985 9985 9985 9985 9985 9985 9985 9986 9987 9988 9989 9989 9990 9991 9992
10110 10107 10103 10099 10095 10091 10088 10084 10081 10078 10074 10071 10068 10065 10062 10059 10057 10055 10052 10049 10047 10044 10042 10040 10038 10036 10035 10034 10032 10030 10027 10024 10020 10019 10017 10016 10014 10012 10011 10009 10008 10006 10005 10005 10004 10002 9999 9997 9996 9995 9995 9994 9993 9992 9990 9989 9988 9987 9986 9985 9984 9984 9983 9982 9982 9981 9981 9980 9980 9980 9980 9980 9980 9980 9980 9980 9981 9981 9982 9982 9983 9984 9984 9985 9986 9987
10104 10100 10097 10093 10089 10085 10082 10079 10075 10072 10069 10066 10062 10060 10057 10054 10052 10049 10047 10044 10042 10040 10037 10035 10033 10031 10030 10030 10029 10027 10024 10020 10017 10015 10014 10013 10011 10009 10007 10005 10004 10002 10001 10000 10000 9998 9996 9994 9992 9991 9991 9990 9989 9988 9987 9985 9984 9984 9982 9981 9980 9980 9979 9979 9978 9977 9977 9977 9977 9976 9976 9976 9976 9976 9976 9977 9977 9977 9977 9978 9979 9979 9980 9980 9981 9982
10098 10094 10090 10087 10083 10079 10076 10072 10070 10067 10064 10061 10058 10055 10052 10050 10047 10044 10041 10039 10037 10035 10032 10030 10028 10026 10025 10024 10024 10023 10020 10017 10014 10012 10010 10009 10008 10006 10004 10002 10000 9999 9997 9997 9996 9995 9993 9990 9989 9987 9987 9986 9985 9984 9983 9982 9981 9980 9979 9978 9977 9976 9975 9975 9975 9974 9974 9973 9973 9972 9972 9972 9972 9972 9972 9972 9973 9973 9974 9974 9974 9975 9975 9976 9977 9977
10092 10088 10084 10080 10077 10074 10070 10067 10064 10062 10059 10056 10053 10050 10048 10045 10043 10040 10037 10034 10032 10030 10027 10025 10024 10022 10020 10019 10019 10018 10017 10014 10012 10009 10007 10006 10005 10003 10002 10000 9997 9995 9994 9992 9992 9992 9990 9988 9985 9984 9983 9982 9982 9980 9980 9979 9977 9976 9975 9975 9974 9973 9973 9972 9972 9971 9970 9970 9970 9969 9969 9969 9969 9969 9969 9969 9969 9969 9970 9970 9970 9971 9971 9972 9972 9973
10085 10082 10078 10075 10072 10068 10065 10062 10059 10056 10054 10051 10049 10046 10044 10041 10039 10035 10033 10030 10028 10026 10024 10021 10020 10018 10017 10015 10014 10013 10012 10010 10008 10006 10004 10003 10002 10000 9999 9997 9995 9993 9991 9989 9988 9987 9987 9985 9984 9981 9980 9979 9978 9977 9976 9975 9974 9973 9972 9971 9970 9970 9969 9969 9969 9968 9967 9967 9966 9966 9966 9965 9965 9965 9965 9965 9966 9966 9967 9967 9967 9967 9967 9967 9968 9969
10079 10075 10072 10069 10066 10063 10060 10057 10054 10051 10049 10047 10044 10042 10039 10037 10034 10032 10029 10027 10024 10022 10020 10017 10015 10014 10013 10012 10010 10009 10007 10006 10004 10003 10001 10000 9999 9997 9995 9994 9992 9990 9989 9987 9985 9983 9982 9982 9980 9979 9977 9975 9975 9974 9973 9972 9970 9970 9969 9968 9967 9967 9966 9965 9965 9964 9964 9964 9963 9963 9963 9963 9962 9962 9963 9963 9963 9963 9963 9963 9964 9964 9963 9964 9964 9965
10073 10070 10067 10064 10060 10057 10055 10052 10049 10047 10044 10042 10040 10037 10035 10033 10030 10028 10025 10023 10020 10019 10017 10014 10012 10010 10010 10009 10008 10006 10004 10002 10000 9999 9998 9997 9995 9994 9992 9991 9989 9987 9986 9984 9982 9980 9979 9977 9977 9975 9974 9972 9972 9970 9970 9969 9967 9967 9965 9965 9964 9964 9963 9962 9962 9962 9961 9960 9960 9960 9960 9960 9960 9960 9960 9960 9960 9960 9960 9960 9960 9960 9960 9960 9960 9960
10067 10064 10060 10058 10055 10052 10050 10047 10044 10042 10040 10037 10035 10033 10031 10029 10027 10024 10022 10020 10017 10015 10013 10011 10009 10007 10006 10005 10004 10003 10002 9999 9997 9995 9994 9993 9992 9990 9989 9987 9986 9984 9983 9982 9980 9978 9976 9974 9973 9972 9971 9970 9969 9967 9967 9965 9965 9964 9963 9962 9961 9960 9960 9960 9959 9959 9959 9958 9958 9958 9957 9957 9957 9957 9957 9957 9957 9957 9957 9957 9957 9957 9957 9957 9957 9957
10061 10058 10055 10052 10050 10047 10045 10042 10040 10037 10035 10033 10031 10029 10027 10025 10023 10020 10019 10016 10014 10012 10010 10008 10006 10004 10002 10001 10000 9999 9998 9997 9995 9993 9991 9990 9989 9987 9985 9984 9983 9982 9980 9979 9977 9975 9974 9972 9970 9969 9968 9967 9965 9965 9964 9963 9962 9961 9960 9959 9959 9958 9957 9957 9957 9956 9956 9955 9955 9955 9955 9955 9955 9954 9954 9954 9954 9954 9954 9953 9953 9954 9954 9954 9954 9954
10056 10053 10050 10047 10045 10042 10040 10037 10035 10033 10031 10029 10027 10025 10023 10021 10019 10017 10015 10013 10011 10009 10007 10005 10004 10002 10000 9998 9997 9995 9994 9993 9992 9990 9989 9987 9985 9984 9982 9981 9980 9979 9977 9975 9974 9973 9971 9969 9968 9967 9965 9964 9963 9962 9961 9960 9959 9959 9957 9957 9956 9955 9955 9954 9954 9954 9954 9953 9953 9953 9952 9952 9952 9952 9951 9950 9950 9950 9950 9950 9950 9950 9950 9950 9950 9951
10051 10048 10045 10042 10040 10037 10035 10033 10031 10029 10027 10025 10023 10021 10019 10018 10016 10014 10012 10010 10008 10006 10004 10002 10000 9999 9997 9996 9994 9992 9991 9990 9988 9987 9985 9984 9983 9981 9979 9978 9977 9975 9974 9972 9971 9970 9969 9967 9965 9964 9963 9962 9960 9959 9959 9957 9957 9956 9955 9954 9954 9954 9953 9952 9952 9952 9951 9950 9950 9950 9950 9949 9949 9949 9948 9948 9947 9947 9947 9947 9947 9947 9947 9947 9947 9947
10046 10044 10040 10038 10035 10033 10030 10029 10027 10025 10023 10021 10019 10017 10016 10014 10013 10011 10009 10007 10005 10003 10001 9999 9998 9996 9995 9994 9992 9990 9988 9987 9985 9984 9982 9981 9980 9979 9977 9975 9974 9973 9972 9970 9969 9967 9966 9965 9963 9962 9960 9959 9958 9957 9956 9955 9955 9954 9953 9952 9952 9951 9950 9950 9950 9949 9949 9949 9948 9947 9947 9947 9946 9945 9945 9945 9944 9944 9944 9944 9944 9944 9944 9944 9944 9944
10042 10039 10036 10034 10031 10029 10026 10024 10022 10020 10019 10017 10015 10014 10012 10011 10010 10008 10006 10004 10002 10000 9999 9997 9995 9994 9992 9990 9989 9987 9986 9984 9982 9981 9980 9979 9977 9976 9974 9973 9972 9970 9969 9968 9966 9965 9964 9962 9961 9959 9958 9957 9956 9955 9954 9953 9952 9952 9951 9950 9950 9950 9949 9949 9948 9947 9947 9946 9945 9945 9944 9944 9944 9943 9942 9942 9942 9941 9941 9941 9941 9941 9941 9941 9941 9941
10037 10035 10032 10029 10027 10024 10022 10020 10019 10017 10015 10014 10012 10010 10009 10008 10006 10005 10003 10001 9999 9997 9995 9994 9992 9990 9989 9988 9987 9985 9984 9982 9980 9979 9977 9976 9975 9974 9972 9970 9969 9968 9967 9965 9964 9963 9961 9960 9959 9957 9956 9955 9954 9953 9952 9951 9950 9950 9949 9949 9949 9948 9947 9947 9946 9945 9945 9944 9944 9943 9942 9942 9941 9940 9940 9939 9939 9939 9938 9938 9938 9937 9937 9937 9937 9938
10034 10031 10028 10025 10023 10020 10019 10017 10014 10013 10011 10009 10008 10007 10005 10004 10003 10002 10000 9998 9996 9994 9992 9991 9989 9988 9987 9985 9984 9982 9980 9979 9978 9976 9975 9974 9972 9971 9970 9969 9967 9966 9965 9964 9962 9961 9959 9958 9956 9955 9954 9953 9952 9950 9950 9949 9949 9948 9948 9947 9947 9946 9946 9945 9944 9944 9943 9942 9941 9940 9940 9939 9939 9938 9937 9937 9936 9936 9935 9935 9935 9935 9935 9935 9935 9935
10030 10027 10025 10022 10020 10017 10015 10013 10011 10009 10007 10005 10004 10003 10002 10000 9999 9998 9997 9995 9994 9992 9990 9988 9987 9985 9984 9983 9981 9980 9978 9977 9975 9974 9972 9971 9970 9969 9968 9967 9965 9964 9962 9961 9960 9959 9957 9956 9954 9953 9952 9951 9950 9949 9949 9948 9947 9947 9947 9946 9945 9945 9944 9944 9942 9942 9941 9940 9939 9939 9937 9937 9936 9935 9935 9935 9934 9934 9934 9933 9933 9932 9932 9932 9932 9932
10027 10024 10022 10019 10017 10014 10012 10010 10008 10006 10004 10002 10001 9999 9998 9997 9995 9994 9993 9992 9990 9989 9987 9986 9985 9984 9982 9981 9979 9978 9976 9974 9973 9972 9970 9969 9968 9967 9965 9964 9963 9962 9960 9959 9958 9957 9955 9954 9953 9951 9950 9949 9949 9947 9947 9946 9946 9945 9945 9944 9944 9943 9942 9942 9941 9940 9939 9939 9937 9937 9936 9935 9934 9934 9933 9932 9932 9932 9932 9931 9931 9930 9930 9930 9930 9930
10023 10020 10019 10016 10014 10012 10009 10007 10005 10003 10001 9999 9998 9996 9995 9994 9992 9991 9990 9989 9987 9986 9984 9983 9982 9981 9980 9979 9977 9976 9974 9972 9971 9969 9968 9967 9966 9965 9964 9962 9961 9960 9959 9957 9956 9955 9954 9952 9951 9950 9949 9948 9947 9946 9945 9945 9944 9944 9944 9943 9942 9941 9940 9940 9939 9939 9938 9937 9935 9935 9934 9933 9932 9932 9931 9931 9930 9930 9929 9929 9929 9929 9929 9928 9928 9927
10019 10017 10015 10013 10010 10009 10007 10005 10002 10000 9999 9997 9995 9993 9992 9990 9989 9988 9987 9985 9984 9983 9982 9980 9979 9979 9977 9976 9975 9974 9972 9970 9969 9967 9966 9965 9964 9962 9962 9960 9959 9958 9957 9955 9954 9953 9952 9950 9949 9948 9947 9946 9945 9945 9944 9944 9943 9942 9942 9941 9940 9940 9939 9938 9937 9937 9936 9935 9934 9933 9932 9932 9931 9930 9930 9929 9929 9928 9927 9927 9927 9926 9926 9926 9925 9925
10015 10014 10011 10009 10007 10005 10004 10002 10000 9998 9996 9994 9992 9990 9989 9987 9986 9985 9984 9982 9981 9980 9979 9977 9977 9975 9975 9974 9973 9971 9970 9968 9967 9965 9964 9963 9962 9961 9960 9959 9957 9956 9955 9954 9953 9951 9950 9949 9947 9946 9945 9945 9944 9944 9943 9942 9942 9941 9940 9940 9939 9939 9938 9937 9936 9935 9934 9934 9932 9932 9931 9930 9930 9929 9928 9927 9927 9926 9926 9925 9925 9924 9924 9924 9924 9924
10012 10010 10008 10006 10004 10002 10000 9999 9997 9995 9994 9992 9990 9988 9986 9985 9984 9982 9981 9980 9979 9977 9976 9975 9974 9973 9972 9971 9970 9969 9967 9966 9965 9964 9962 9961 9960 9959 9958 9957 9955 9954 9953 9952 9951 9950 9949 9947 9946 9945 9944 9944 9943 9942 9942 9941 9940 9940 9939 9939 9938 9937 9936 9935 9935 9934 9933 9932 9931 9930 9929 9929 9929 9927 9927 9926 9925 9925 9924 9924 9923 9922 9922 9922 9922 9921
10008 10006 10004 10002 10000 9999 9997 9995 9994 9992 9990 9989 9987 9985 9984 9982 9981 9980 9979 9977 9976 9975 9973 9972 9971 9970 9970 9969 9968 9967 9965 9964 9963 9962 9960 9959 9958 9957 9956 9955 9954 9953 9952 9950 9949 9948 9947 9946 9945 9944 9943 9942 9942 9941 9940 9940 9940 9939 9938 9937 9937 9936 9935 9934 9934 9933 9932 9931 9930 9929 9928 9927 9927 9926 9925 9924 9924 9923 9922 9922 9922 9921 9920 9920 9920 9920
10004 10002 10001 9999 9997 9996 9994 9993 9991 9989 9988 9986 9985 9983 9982 9980 9979 9977 9976 9975 9974 9972 9971 9970 9969 9968 9967 9967 9965 9964 9963 9962 9960 9959 9959 9957 9956 9955 9954 9953 9952 9951 9950 9949 9948 9947 9945 9945 9944 9943 9942 9941 9940 9940 9940 9939 9939 9938 9937 9936 9935 9935 9934 9933 9932 9932 9931 9930 9929 9928 9927 9927 9925 9925 9924 9923 9922 9922 9921 9920 9920 9920 9919 9919 9919 9919
10001 9999 9998 9996 9995 9993 9991 9990 9988 9987 9985 9984 9982 9980 9979 9978 9976 9975 9974 9972 9971 9970 9969 9968 9967 9965 9965 9964 9963 9962 9961 9960 9959 9957 9957 9955 9954 9954 9952 9952 9951 9950 9949 9948 9947 9945 9945 9944 9942 9942 9941 9940 9940 9939 9939 9938 9937 9937 9936 9935 9934 9934 9933 9932 9932 9930 9930 9929 9928 9927 9927 9926 9925 9924 9923 9922 9922 9920 9920 9919 9919 9919 9919 9918 9918 9918
9999 9997 9995 9994 9992 9990 9989 9987 9985 9984 9982 9981 9980 9978 9977 9975 9974 9972 9971 9970 9969 9968 9967 9965 9965 9964 9963 9962 9961 9960 9959 9958 9957 9955 9955 9954 9953 9952 9951 9950 9949 9949 9948 9947 9945 9945 9944 9942 9942 9941 9940 9939 9939 9939 9938 9937 9937 9935 9935 9934 9934 9933 9932 9931 9930 9930 9929 9928 9927 9927 9925 9925 9924 9923 9922 9922 9921 9920 9919 9919 9918 9918 9918 9917 9917 9917
9996 9994 9992 9990 9989 9987 9986 9984 9983 9981 9980 9979 9977 9975 9974 9973 9972 9970 9969 9968 9967 9965 9964 9964 9962 9962 9961 9960 9959 9959 9957 9956 9955 9954 9953 9952 9951 9950 9950 9949 9949 9947 9947 9945 9945 9944 9942 9942 9941 9940 9939 9939 9938 9937 9937 9936 9935 9935 9934 9933 9932 9932 9931 9930 9930 9929 9928 9927 9927 9925 9925 9924 9923 9922 9922 9921 9920 9919 9919 9918 9918 9917 9917 9917 9916 9915